This is the latest recevied weather packets stored in our database for station/object IW1PPB-3. If no packets are shown the sender has not sent any weather packets the latest 10 day(s).
| Time | Temp. | Humidity | Pressure | Rain* | Wind** | Luminosity | Snow |
|---|---|---|---|---|---|---|---|
| 1788498220 | 23.89° C | 78% | 1018.5 hPa | 0 mm | - | - | - |
| 1788497611 | 23.89° C | 78% | 1018.3 hPa | 0 mm | - | - | - |
| 1788497005 | 23.89° C | 78% | 1018.1 hPa | 0 mm | - | - | - |
| 1788496416 | 23.89° C | 78% | 1018.2 hPa | 0 mm | - | - | - |
| 1788495810 | 23.89° C | 78% | 1018 hPa | 0 mm | - | - | - |
| 1788495219 | 23.89° C | 74% | 1018 hPa | 0 mm | - | - | - |
| 1788494605 | 24.44° C | 76% | 1017.9 hPa | 0 mm | - | - | - |
| 1788494021 | 24.44° C | 77% | 1017.9 hPa | 0 mm | - | - | - |
| 1788493406 | 24.44° C | 76% | 1017.9 hPa | 0 mm | - | - | - |
| 1788492823 | 24.44° C | 76% | 1018 hPa | 0 mm | - | - | - |
| 1788492209 | 24.44° C | 74% | 1017.8 hPa | 0 mm | - | - | - |
| 1788491627 | 24.44° C | 74% | 1018 hPa | 0 mm | - | - | - |
| 1788491016 | 24.44° C | 74% | 1018.1 hPa | 0 mm | - | - | - |
| 1788490405 | 24.44° C | 74% | 1018 hPa | 0 mm | - | - | - |
| 1788489821 | 24.44° C | 74% | 1018 hPa | 0 mm | - | - | - |
| 1788489212 | 24.44° C | 74% | 1018.1 hPa | 0 mm | - | - | - |
| 1788488618 | 24.44° C | 74% | 1018.2 hPa | 0 mm | - | - | - |
| 1788488020 | 24.44° C | 74% | 1018.2 hPa | 0 mm | - | - | - |
| 1788487405 | 24.44° C | 75% | 1018.2 hPa | 0 mm | - | - | - |
| 1788486814 | 24.44° C | 74% | 1018.2 hPa | 0 mm | - | - | - |
| 1788486226 | 24.44° C | 74% | 1018.1 hPa | 0 mm | - | - | - |
| 1788485618 | 24.44° C | 75% | 1018.1 hPa | 0 mm | - | - | - |
| 1788485006 | 25° C | 74% | 1018.1 hPa | 0 mm | - | - | - |
| 1788484403 | 25° C | 74% | 1018.2 hPa | 0 mm | - | - | - |
| 1788483810 | 25° C | 74% | 1018.2 hPa | 0 mm | - | - | - |
* Rain latest hour (hover to see other rain measurements)
** Current wind speed in m/s (hover to see current wind gust speed)